Wind_Speed
33 34 36 37 37 38 39 40 41 40 40 39 39 39 39 39 39 39 40 41 42 43 43 44 44 44 44 44 44 45 45 45 45 45 45 45 46 46 46 45 45 45 45 46
31 33 35 36 36 37 38 38 39 40 40 39 38 38 39 39 38 39 40 41 42 42 43 44 44 45 45 45 45 44 44 44 44 45 45 44 44 45 45 45 45 45 46 46
29 31 33 35 35 36 36 36 37 38 38 39 38 38 38 39 38 38 39 40 41 42 43 43 44 44 44 45 45 44 44 43 43 43 43 43 43 43 44 44 45 45 46 46
27 29 32 32 33 34 34 34 35 36 36 37 37 37 38 39 39 38 38 39 40 41 41 42 43 43 44 44 43 43 43 42 42 42 42 42 42 42 42 43 44 45 45 45
26 28 30 30 31 32 33 33 33 34 35 36 37 37 37 38 39 38 37 37 38 40 41 41 42 43 43 43 43 43 42 42 43 43 43 43 42 42 42 43 43 44 44 44
26 27 27 27 28 30 31 31 31 32 32 34 35 36 35 36 37 37 36 36 36 37 39 40 41 41 42 42 42 42 43 43 43 44 43 43 43 43 43 43 43 43 43 44
24 25 25 25 26 28 29 29 29 30 30 31 32 34 35 35 35 36 36 36 37 37 37 38 39 40 41 41 42 42 42 42 43 43 43 43 43 43 43 42 42 42 42 43
22 23 23 24 24 26 26 27 28 28 29 30 31 32 34 35 36 35 35 36 36 36 37 37 37 38 39 39 40 41 41 42 42 43 43 43 43 42 41 41 41 41 41 42
21 21 21 22 23 25 25 26 27 27 28 29 30 32 33 34 35 36 36 35 35 36 36 37 37 37 38 38 39 39 40 40 41 41 41 41 40 40 40 40 40 40 41 42
20 21 22 22 23 23 24 24 25 26 26 27 29 30 31 33 35 36 36 36 35 35 35 35 36 37 38 38 39 39 39 39 39 39 39 39 39 39 39 40 40 40 40 40
20 20 22 22 23 23 23 23 24 24 25 26 27 28 29 31 32 33 34 35 35 36 36 36 36 37 37 38 38 38 38 38 38 38 38 38 38 38 39 39 39 38 38 37
19 19 20 22 23 23 24 25 25 25 25 26 27 28 29 30 31 32 33 33 34 35 35 35 36 36 37 38 38 38 38 37 37 37 38 38 38 38 38 37 37 36 35 35
20 20 20 21 22 23 24 25 26 26 27 27 27 26 26 27 28 30 32 33 33 34 35 36 36 36 37 37 38 37 37 37 36 37 37 37 37 36 36 36 35 35 34 33
19 20 20 21 22 23 24 25 25 26 27 27 27 26 26 26 26 28 29 31 33 34 35 35 36 36 37 37 37 36 36 36 36 35 35 35 35 35 34 33 32 32 32 32
19 19 20 20 21 22 23 24 24 24 25 26 26 26 26 26 27 28 29 29 30 31 33 34 35 35 36 36 35 35 35 35 34 34 33 33 33 33 33 32 31 31 31 30
17 19 19 19 20 21 22 22 23 23 24 25 25 25 26 26 27 27 28 28 28 28 29 30 32 33 33 33 33 33 33 33 33 32 32 32 32 32 32 32 32 31 31 30
16 18 19 19 20 21 21 21 22 23 23 24 24 25 26 26 26 26 27 27 28 28 28 28 29 30 30 31 31 31 31 31 30 30 31 31 31 31 31 31 30 31 30 30
16 17 19 19 20 20 21 21 22 23 23 23 23 24 24 25 25 26 26 27 27 28 28 28 28 28 28 29 29 29 29 30 30 30 30 29 29 29 29 29 29 29 28 27
15 16 17 18 19 20 20 21 21 22 23 23 23 24 24 24 24 25 26 26 26 27 27 28 27 27 27 27 27 27 27 28 28 28 28 28 28 28 28 27 27 26 26 25
15 16 16 17 18 19 20 20 21 21 22 22 23 23 24 23 23 23 24 24 25 25 25 25 26 26 26 26 25 25 25 25 26 26 26 26 26 25 25 25 24 24 24 24
14 15 16 16 17 18 18 18 19 20 20 21 21 21 22 22 22 22 22 22 23 24 24 24 25 25 25 25 24 23 23 24 25 25 24 24 23 23 23 23 23 22 22 22
14 14 15 15 16 17 17 18 18 19 19 20 20 21 21 21 21 22 22 22 23 23 23 23 23 23 23 23 23 23 23 22 22 22 22 22 22 21 21 21 20 20 20 20
14 14 15 15 16 16 17 18 18 18 19 19 20 20 20 21 21 21 21 21 21 21 22 22 22 22 22 22 22 21 21 20 19 19 19 20 20 20 20 19 19 19 19 19
14 14 15 15 16 16 17 17 17 17 18 19 19 19 19 19 19 19 19 19 19 20 20 20 21 21 21 21 20 20 19 19 18 18 18 18 19 19 19 19 19 18 18 18
15 15 15 15 15 15 16 16 17 17 17 17 17 17 17 17 17 17 18 18 18 18 18 18 18 18 18 18 18 18 18 18 18 18 18 18 18 18 17 17 17 17 16 16
15 15 15 15 15 15 15 15 15 15 15 15 15 14 14 14 14 15 16 16 16 15 15 15 15 15 15 15 15 16 16 17 16 16 16 16 15 15 14 14 14 14 14 14
14 14 14 14 14 14 14 14 14 14 14 13 13 13 12 12 13 13 13 13 13 13 12 12 13 13 13 13 13 13 14 14 14 14 13 13 13 12 12 11 11 11 11 11
Wind_Direction
235 234 234 235 234 234 236 238 239 240 243 243 244 245 245 244 243 243 242 241 241 242 242 244 245 246 248 250 252 254 256 257 259 261 264 265 267 268 269 269 270 272 273 274
235 234 234 235 233 234 236 237 238 239 241 242 244 244 244 244 243 243 243 243 243 244 244 245 246 247 248 250 252 254 256 258 260 262 264 265 267 268 268 268 270 272 274 275
236 236 236 235 233 234 236 238 239 241 242 243 243 244 244 243 243 244 243 244 244 245 245 247 249 249 249 250 251 253 255 257 260 262 264 265 266 267 268 269 271 272 274 275
239 238 239 237 235 236 237 238 238 240 241 242 243 244 244 244 243 244 245 244 245 245 246 247 248 249 250 250 251 253 255 257 260 262 263 264 266 267 269 271 272 273 274 275
239 239 239 238 237 237 238 239 240 240 241 243 244 245 244 244 244 244 245 245 245 246 247 246 247 248 249 250 252 253 254 257 259 261 263 264 265 267 270 271 272 273 274 275
238 240 240 238 238 239 240 241 240 242 242 243 244 244 243 243 243 244 245 246 246 247 247 247 246 246 247 249 252 254 255 258 260 262 263 264 266 268 270 271 272 273 274 275
238 240 241 239 239 239 241 241 242 243 243 242 243 243 242 242 242 244 245 246 247 248 248 248 247 247 247 250 252 254 257 259 260 262 263 265 267 269 271 271 272 273 275 276
238 239 239 240 241 240 241 242 244 246 246 244 243 242 242 242 242 244 245 245 247 248 248 249 250 250 251 252 253 255 258 260 261 261 263 264 266 268 270 271 272 273 274 276
237 237 238 239 242 242 243 244 245 246 247 246 245 244 243 242 243 244 245 246 247 248 249 250 251 251 252 253 255 257 259 260 261 261 263 265 266 267 269 270 271 273 275 276
236 234 237 239 241 243 244 245 245 245 246 247 247 246 246 246 245 246 247 248 248 249 250 250 251 252 253 255 257 259 259 260 261 261 263 265 267 268 270 271 273 274 276 276
238 239 241 242 243 244 245 246 246 246 247 248 249 249 249 249 249 248 248 249 250 251 252 253 254 255 256 258 259 261 262 263 263 263 264 265 268 270 271 272 274 276 276 275
241 242 246 246 245 246 246 246 247 248 248 249 251 251 252 252 250 249 250 252 253 253 253 254 256 257 258 260 261 262 263 263 264 265 267 268 268 269 270 271 273 274 275 276
246 247 249 249 248 247 248 249 250 251 251 251 252 252 251 251 251 250 251 252 253 253 254 255 257 258 259 261 261 261 262 263 264 266 267 268 268 268 269 270 272 272 273 275
248 249 249 249 249 250 250 252 253 254 254 253 252 251 251 252 253 253 254 254 253 254 255 255 256 258 258 260 260 261 262 263 264 265 266 266 266 267 268 268 268 270 271 273
248 249 249 250 251 252 253 253 253 254 254 253 253 251 251 252 254 255 255 255 255 255 255 256 256 257 258 260 260 260 261 262 264 264 265 265 265 266 267 265 265 268 270 272
250 249 251 251 251 253 254 253 253 253 252 252 253 253 253 254 256 257 257 257 257 257 257 257 258 259 259 260 259 259 260 262 262 263 263 264 265 266 265 265 266 267 269 271
257 255 254 254 253 254 254 253 253 253 253 253 254 256 256 257 258 258 258 258 258 258 258 259 260 259 259 259 259 259 259 259 260 262 263 264 265 266 266 266 267 269 270 272
262 260 257 255 254 255 255 255 256 257 256 256 257 258 259 259 260 259 260 260 260 259 259 260 260 261 260 260 260 260 259 259 261 262 263 263 264 264 265 266 268 269 269 271
269 266 261 257 256 256 256 257 258 258 259 259 260 261 262 261 261 261 260 260 260 260 260 260 261 261 261 261 260 260 260 261 261 262 263 263 263 264 265 266 267 267 268 270
273 271 268 264 262 261 260 259 258 259 259 260 261 261 262 262 261 261 260 259 259 259 260 260 259 260 260 261 261 261 261 261 262 262 263 263 263 263 263 265 266 267 267 269
274 274 273 271 268 265 264 262 261 261 261 261 261 260 261 261 261 261 261 261 261 260 260 260 261 261 260 260 260 260 261 262 262 262 261 261 261 262 263 264 265 266 266 268
275 276 276 274 272 269 267 265 264 263 264 264 263 262 262 262 262 261 261 261 261 261 260 260 262 262 260 260 260 260 261 262 261 260 259 259 259 260 263 264 264 264 264 266
277 276 276 276 275 273 272 270 268 266 266 266 265 265 265 264 264 263 262 261 260 260 261 262 263 261 259 259 259 259 259 260 259 258 258 258 259 260 261 262 263 262 262 264
281 279 278 279 279 277 275 273 271 269 269 269 269 267 267 265 264 262 260 260 261 262 263 263 262 260 259 258 257 257 257 257 257 257 257 258 260 261 261 261 260 260 260 261
283 282 281 281 280 280 277 275 275 274 273 272 271 270 267 265 262 262 262 263 263 263 263 262 261 258 255 253 252 252 254 256 256 256 256 258 259 261 261 260 258 256 256 257
282 281 281 281 282 281 280 278 276 274 273 273 272 269 267 264 262 261 263 263 261 260 260 259 256 253 251 249 248 250 252 253 253 253 253 254 255 257 257 256 255 254 253 253
283 281 282 283 282 281 279 278 277 275 272 270 268 266 265 264 264 263 261 260 259 257 256 256 253 249 247 246 247 248 248 248 249 249 249 249 248 248 247 246 248 248 250 249
Height
5523 5528 5532 5536 5541 5545 5549 5553 5558 5563 5567 5572 5575 5578 5582 5586 5590 5594 5598 5602 5606 5609 5613 5616 5620 5623 5626 5628 5630 5632 5634 5635 5636 5637 5637 5638 5637 5637 5636 5636 5635 5635 5634 5632
5516 5520 5524 5528 5532 5536 5541 5545 5549 5553 5558 5562 5566 5569 5573 5576 5580 5584 5588 5592 5595 5599 5602 5606 5609 5612 5615 5617 5620 5622 5623 5625 5626 5626 5626 5626 5626 5625 5625 5624 5624 5623 5622 5621
5510 5513 5516 5521 5526 5529 5533 5537 5541 5545 5551 5553 5557 5560 5564 5568 5571 5575 5578 5582 5585 5588 5592 5595 5598 5601 5604 5606 5609 5611 5613 5614 5615 5615 5615 5615 5615 5614 5614 5613 5613 5612 5611 5610
5504 5507 5510 5517 5519 5522 5526 5530 5533 5537 5541 5544 5548 5551 5555 5559 5562 5565 5569 5572 5575 5578 5581 5584 5587 5590 5593 5595 5598 5600 5602 5603 5604 5604 5605 5605 5605 5604 5603 5603 5602 5601 5600 5599
5498 5500 5504 5509 5512 5515 5519 5522 5526 5529 5533 5536 5539 5542 5546 5549 5552 5556 5559 5562 5565 5568 5571 5574 5576 5579 5582 5584 5587 5589 5591 5592 5593 5594 5594 5594 5594 5594 5593 5592 5591 5590 5589 5588
5493 5495 5499 5504 5506 5508 5512 5515 5519 5522 5525 5528 5531 5534 5539 5540 5543 5546 5549 5552 5555 5558 5561 5563 5566 5568 5571 5574 5576 5578 5580 5581 5582 5583 5583 5583 5583 5583 5582 5581 5580 5579 5578 5577
5487 5490 5493 5497 5499 5502 5507 5510 5512 5514 5517 5520 5523 5526 5529 5531 5534 5537 5540 5543 5545 5548 5551 5553 5556 5558 5561 5563 5565 5567 5569 5570 5571 5571 5572 5572 5572 5572 5571 5571 5570 5569 5568 5567
5482 5485 5490 5491 5493 5497 5500 5502 5504 5507 5509 5512 5514 5517 5519 5522 5525 5528 5531 5534 5536 5539 5541 5544 5546 5548 5551 5553 5555 5557 5558 5559 5560 5560 5561 5561 5561 5561 5560 5560 5559 5558 5557 5556
5479 5483 5484 5485 5488 5490 5493 5495 5497 5500 5502 5504 5506 5509 5511 5514 5516 5519 5522 5524 5527 5530 5532 5534 5536 5539 5541 5543 5544 5546 5547 5548 5549 5549 5549 5550 5550 5550 5550 5549 5548 5547 5546 5545
5474 5476 5478 5480 5482 5484 5486 5488 5490 5492 5495 5497 5499 5501 5503 5505 5508 5510 5513 5515 5518 5520 5523 5525 5527 5529 5531 5533 5534 5536 5537 5537 5538 5539 5539 5539 5539 5539 5539 5538 5538 5537 5535 5534
5469 5471 5473 5475 5476 5478 5480 5482 5484 5486 5488 5490 5491 5493 5495 5497 5499 5501 5504 5506 5509 5511 5513 5515 5517 5519 5521 5522 5524 5525 5526 5527 5527 5528 5528 5529 5529 5528 5528 5528 5527 5526 5525 5524
5465 5466 5468 5469 5471 5472 5474 5475 5477 5479 5481 5482 5484 5486 5487 5489 5491 5493 5495 5497 5499 5501 5504 5505 5507 5509 5510 5512 5513 5514 5516 5516 5517 5518 5518 5518 5519 5519 5518 5517 5517 5516 5515 5514
5460 5461 5462 5463 5465 5466 5468 5469 5470 5472 5474 5475 5477 5478 5479 5481 5482 5484 5486 5488 5490 5492 5494 5495 5497 5499 5500 5501 5503 5504 5505 5506 5507 5507 5508 5508 5508 5508 5508 5508 5507 5506 5506 5505
5454 5456 5457 5458 5459 5460 5461 5463 5464 5465 5466 5468 5469 5471 5472 5473 5475 5476 5477 5479 5481 5482 5484 5485 5487 5488 5490 5491 5492 5494 5495 5495 5496 5497 5497 5498 5498 5498 5498 5498 5498 5497 5497 5496
5449 5450 5451 5452 5453 5454 5455 5456 5457 5458 5459 5461 5462 5463 5465 5466 5467 5468 5469 5471 5472 5473 5474 5476 5477 5478 5480 5481 5482 5483 5484 5485 5486 5486 5487 5488 5488 5488 5489 5489 5489 5489 5488 5487
5444 5444 5445 5446 5447 5448 5449 5450 5451 5452 5453 5454 5455 5456 5457 5458 5459 5460 5461 5462 5464 5464 5465 5466 5467 5469 5470 5471 5472 5473 5474 5475 5476 5477 5477 5478 5478 5479 5479 5479 5479 5480 5479 5479
5439 5439 5440 5440 5441 5442 5442 5443 5444 5445 5446 5447 5448 5449 5450 5451 5452 5452 5453 5454 5455 5456 5457 5458 5459 5460 5461 5462 5463 5464 5465 5465 5466 5467 5468 5468 5469 5469 5469 5470 5470 5470 5470 5469
5434 5434 5434 5435 5435 5436 5436 5437 5438 5439 5439 5440 5441 5442 5442 5443 5444 5444 5445 5446 5447 5448 5448 5449 5450 5451 5452 5453 5454 5454 5455 5456 5457 5458 5458 5459 5459 5460 5460 5461 5461 5461 5461 5460
5428 5428 5429 5429 5429 5430 5430 5431 5432 5432 5433 5433 5434 5435 5435 5435 5436 5437 5437 5438 5439 5439 5440 5441 5442 5443 5443 5444 5445 5446 5446 5447 5448 5449 5449 5450 5450 5451 5451 5452 5452 5452 5452 5452
5424 5424 5423 5424 5424 5424 5424 5425 5425 5426 5426 5427 5427 5427 5428 5428 5428 5429 5430 5430 5431 5431 5432 5433 5434 5434 5435 5436 5436 5437 5438 5439 5439 5440 5441 5441 5442 5442 5443 5444 5444 5444 5444 5445
5419 5419 5419 5418 5418 5418 5419 5419 5419 5419 5420 5420 5420 5421 5421 5421 5421 5422 5422 5423 5423 5424 5424 5425 5426 5426 5427 5428 5428 5429 5430 5431 5431 5432 5433 5433 5434 5435 5435 5436 5436 5437 5437 5437
5415 5415 5414 5414 5414 5413 5413 5413 5414 5414 5414 5414 5414 5414 5414 5414 5415 5415 5415 5416 5416 5416 5417 5418 5418 5418 5419 5420 5421 5421 5422 5423 5424 5424 5425 5426 5427 5428 5428 5429 5429 5430 5430 5431
5411 5411 5410 5409 5409 5409 5408 5408 5408 5408 5408 5408 5408 5408 5408 5408 5408 5408 5409 5409 5409 5410 5410 5411 5411 5411 5412 5413 5414 5414 5415 5416 5417 5418 5419 5419 5420 5421 5422 5423 5423 5424 5424 5425
5407 5406 5406 5405 5404 5404 5403 5403 5402 5402 5402 5402 5401 5401 5401 5401 5402 5402 5402 5402 5403 5403 5404 5404 5404 5405 5405 5406 5407 5408 5409 5410 5411 5412 5412 5413 5414 5415 5416 5416 5417 5418 5418 5419
5403 5402 5401 5400 5400 5399 5398 5397 5397 5397 5396 5396 5396 5395 5395 5395 5396 5396 5396 5396 5397 5397 5397 5398 5398 5399 5399 5400 5401 5402 5403 5404 5405 5406 5406 5407 5408 5409 5410 5410 5411 5412 5413 5413
5398 5398 5397 5396 5395 5394 5393 5393 5392 5391 5391 5391 5390 5390 5390 5390 5390 5390 5391 5391 5391 5391 5392 5392 5393 5393 5394 5395 5396 5397 5398 5399 5399 5400 5401 5402 5403 5404 5404 5405 5406 5407 5408 5408
5394 5393 5392 5392 5391 5390 5389 5388 5387 5387 5386 5386 5386 5385 5385 5385 5386 5386 5386 5386 5387 5387 5388 5388 5388 5389 5390 5391 5391 5392 5393 5394 5395 5396 5396 5397 5398 5399 5400 5401 5402 5403 5404 5405